CUTE-1 (CO-55) 1 27844U 03031E 26103.75937083 .00000217 00000+0 11299-3 0 9990 2 27844 98.6766 113.1241 0009892 19.9623 340.1941 14.24295359182502 CUBESAT XI-IV (CO-57) 1 27848U 03031J 26103.57507156 .00000185 00000+0 10026-3 0 9999 2 27848 98.6796 112.7063 0010141 37.9126 322.2764 14.23586039182188 CUBESAT XI-V 1 28895U 05043F 26104.18955009 .00000891 00000+0 14852-3 0 9994 2 28895 98.2904 258.5019 0014986 52.4690 307.7876 14.72462584 92338 CUTE-1.7+APD II (CO-65) 1 32785U 08021C 26104.19855923 .00002782 00000+0 18088-3 0 9997 2 32785 97.8245 84.3322 0007256 240.6663 119.3841 15.08852000975547 CANX-2 1 32790U 08021H 26104.21123853 .00002615 00000+0 18791-3 0 9992 2 32790 97.8607 82.7854 0008769 258.8624 101.1616 15.05166760975182 SEEDS II (CO-66) 1 32791U 08021J 26104.24090676 .00009444 00000+0 32190-3 0 9998 2 32791 97.7524 99.1999 0004106 139.3108 220.8439 15.30597115977503 SWISSCUBE 1 35932U 09051B 26104.19559638 .00000643 00000+0 13697-3 0 9997 2 35932 98.4073 10.9647 0007962 57.3265 302.8702 14.62356031879809 BEESAT-1 1 35933U 09051C 26104.17216383 .00000532 00000+0 11691-3 0 9992 2 35933 98.4001 10.7088 0006540 70.2330 289.9575 14.61614343879834 ITUPSAT1 1 35935U 09051E 26104.17572017 .00000489 00000+0 11121-3 0 9992 2 35935 98.4089 9.9714 0008771 78.6877 281.5308 14.60342610879391 TISAT 1 1 36799U 10035E 26104.10856738 .00012035 00000+0 42596-3 0 9993 2 36799 98.0671 45.1197 0004696 102.3158 257.8606 15.29309095857905 AEROCUBE 4.5A 1 38767U 12048K 26103.85206779 .00084603 00000+0 67686-3 0 9998 2 38767 64.6326 256.9582 0030828 211.1187 148.8138 15.69963657362493 STRAND-1 1 39090U 13009E 26104.28164693 .00000202 00000+0 82324-4 0 9992 2 39090 98.3911 286.0924 0009731 65.9762 294.2442 14.37125108687886 BRITE-AUSTRIA 1 39091U 13009F 26103.98859766 .00000119 00000+0 55088-4 0 9995 2 39091 98.3981 285.0169 0011353 74.1753 286.0684 14.36516147687837 NEE-01 PEGASO 1 39151U 13018B 26103.81350453 .00002007 00000+0 19695-3 0 9994 2 39151 98.1120 245.8864 0012952 22.4879 337.6905 14.93349474701098 POPACS 2 1 39269U 13055E 26103.72772486 .00013304 00000+0 22666-3 0 9993 2 39269 80.9930 217.8831 0424114 40.8663 322.3538 14.89553484653611 POPACS 3 1 39270U 13055F 26104.24670669 .00003865 00000+0 93804-4 0 9997 2 39270 81.0004 298.4522 0555886 264.5385 89.2190 14.54687065629257 ZACUBE-1 (TSHEPISOSAT) 1 39417U 13066B 26104.14056077 .00002298 00000+0 18272-3 0 9996 2 39417 97.8125 66.1377 0044981 105.5324 255.0872 15.00663839671121 WNISAT-1 1 39423U 13066H 26104.18245366 .00000545 00000+0 10706-3 0 9995 2 39423 97.7112 257.9155 0164606 73.7146 288.2090 14.57984417657406 TRITON-1 1 39427U 13066M 26104.27007884 .00001845 00000+0 22600-3 0 9990 2 39427 97.8276 15.5387 0092084 82.6932 278.4736 14.81397268664628 GOMX-1 1 39430U 13066Q 26104.30819439 .00001068 00000+0 16812-3 0 9990 2 39430 97.6540 308.7900 0127644 282.9169 75.7807 14.69232115660538 CUBEBUG-2 (LO-74) 1 39440U 13066AA 26104.28164977 .00002084 00000+0 19858-3 0 9990 2 39440 97.8860 53.0331 0056501 238.4888 121.0804 14.93333580667456 NEE-02 KRYSAOR 1 39441U 13066AB 26103.78983579 .00001269 00000+0 14504-3 0 9999 2 39441 97.8853 43.4906 0064802 281.2686 78.1252 14.86393035666636 FUNCUBE-1 (AO-73) 1 39444U 13066AE 26103.86977851 .00005501 00000+0 35027-3 0 9993 2 39444 97.8226 74.0354 0038589 63.9684 296.5509 15.08574092669965 UWE-3 1 39446U 13066AG 26103.43540102 .00002441 00000+0 21488-3 0 9999 2 39446 97.8655 59.1237 0049495 173.3046 186.8847 14.96527693667890 BRITE-CA1 (TORONTO) 1 40020U 14033L 26104.30400481 .00000717 00000+0 11517-3 0 9992 2 40020 97.9633 234.4504 0079958 121.0398 239.8691 14.72576731632810 DUCHIFAT-1 1 40021U 14033M 26104.09232148 .00038462 00000+0 58124-3 0 9995 2 40021 98.0564 154.8163 0002996 289.9011 70.1918 15.54624643645769 NANOSATC-BR1 1 40024U 14033Q 26103.93372091 .00008987 00000+0 31731-3 0 9996 2 40024 98.0794 130.7160 0004858 67.3615 292.8136 15.29479963644156 QB50P1 1 40025U 14033R 26104.26531530 .00004354 00000+0 22231-3 0 9998 2 40025 98.0998 110.9748 0010766 86.7908 273.4556 15.17258980643331 QB50P2 1 40032U 14033Y 26103.49356922 .00004033 00000+0 22406-3 0 9998 2 40032 98.0752 96.3955 0008758 46.8063 313.3897 15.14321412642879 PERSEUS-M2 1 40037U 14033AD 26104.29544808 .00000989 00000+0 95180-4 0 9990 2 40037 97.9914 53.5667 0012502 144.0428 216.1636 14.95317439641237 PERSEUS-M1 1 40039U 14033AF 26104.27325689 .00000971 00000+0 93211-4 0 9998 2 40039 97.9600 47.3860 0012389 143.1276 217.0798 14.95420160641089 POLYITAN-1 1 40042U 14033AJ 26104.30957494 .00009638 00000+0 32328-3 0 9991 2 40042 98.1006 124.6273 0007622 26.9855 333.1779 15.31111689643814 TIGRISAT 1 40043U 14033AK 26104.17161640 .00001188 00000+0 14332-3 0 9994 2 40043 97.7744 255.6917 0048106 284.9836 74.6056 14.84895894636121 AEROCUBE 6A 1 40045U 14033AM 26103.88654316 .00004215 00000+0 36273-3 0 9992 2 40045 97.7185 271.5737 0037806 228.9552 130.8401 14.97369425636991 AEROCUBE 6B 1 40046U 14033AN 26103.88374785 .00004598 00000+0 38143-3 0 9994 2 40046 97.7173 271.2307 0036265 219.3950 140.4635 14.98786324637127 CANX-4 1 40055U 14034C 26104.11125934 .00000549 00000+0 78022-4 0 9995 2 40055 98.3215 337.0461 0012003 212.4150 147.6325 14.81148799635047 CANX-5 1 40056U 14034D 26104.11043005 .00000555 00000+0 78741-4 0 9999 2 40056 98.3218 337.0850 0011993 212.6731 147.3739 14.81165762625850 UKUBE-1 1 40074U 14037F 26103.55550933 .00004573 00000+0 26680-3 0 9990 2 40074 98.4245 100.0943 0002646 62.4165 297.7331 15.12544836638781 BRITE-PL2 (HEWELIUSZ) 1 40119U 14049B 26104.29758150 .00000955 00000+0 94235-4 0 9998 2 40119 97.9017 215.8441 0013175 326.1190 33.9187 14.94357869631900 AEROCUBE 5C 1 40965U 15058B 26104.26132007 .00001600 00000+0 15275-3 0 9996 2 40965 64.7648 101.4007 0129586 88.3828 273.2123 14.91078940356122 AEROCUBE 7 1 40966U 15058C 26104.30350426 .00002284 00000+0 19418-3 0 9991 2 40966 64.7610 84.8311 0119481 87.1965 274.2817 14.95202549356406 FOX-1A (AO-85) 1 40967U 15058D 26104.15365988 .00001453 00000+0 14231-3 0 9999 2 40967 64.7725 117.9180 0128372 81.7350 279.8295 14.90581938104020 SINOD-D 1 1 40968U 15058E 26104.15517578 .00002308 00000+0 19633-3 0 9995 2 40968 64.7734 99.3510 0116836 78.6808 282.7407 14.95367653107084 SNAP-3 ALICE 1 40970U 15058G 26104.01380088 .00044092 00000+0 78400-3 0 9990 2 40970 64.7558 323.7316 0031877 54.4471 305.9634 15.49346237106914 LMRST-SAT 1 40971U 15058H 26104.09287542 .00001532 00000+0 14992-3 0 9998 2 40971 64.7731 114.3250 0130283 83.7751 277.8183 14.90212498104006 SNAP-3 EDDIE 1 40972U 15058J 26103.85762803 .00042376 00000+0 72585-3 0 9993 2 40972 64.7473 315.4315 0032626 58.3399 302.0917 15.50385291109026 PROPCUBE 3 1 40973U 15058K 26104.15031768 .00001922 00000+0 17070-3 0 9997 2 40973 64.7670 92.5378 0122640 85.3506 276.1603 14.93796811105236 BISONSAT 1 40974U 15058L 26104.15588041 .00007391 00000+0 37733-3 0 9993 2 40974 64.7624 20.4361 0077850 75.4487 285.5255 15.14801813105913 SNAP-3 JIMI 1 40975U 15058M 26104.26832878 .00003657 00000+0 26293-3 0 9996 2 40975 64.7651 61.8956 0104697 81.6880 279.6092 15.01582864104627 PROPCUBE 1 (FLORA) 1 40976U 15058N 26104.05622901 .00001226 00000+0 12782-3 0 9996 2 40976 64.7723 133.9364 0129216 86.0714 275.5157 14.88863089106715 SINOD-D 3 1 40977U 15058P 26104.30443982 .00001761 00000+0 16065-3 0 9997 2 40977 64.7705 115.2253 0117639 83.6081 277.8414 14.93513878105211 HORYU-4 1 41340U 16012D 26104.27103203 .00074306 00000+0 57003-3 0 9990 2 41340 30.9893 177.7625 0006069 129.0124 231.1072 15.70681613560691 RAVAN 1 41849U 16067B 26104.13823062 .00022683 00000+0 41665-3 0 9999 2 41849 97.9977 346.5933 0004904 205.1354 154.9657 15.49251556517762 CELTEE 1 1 41850U 16067C 26104.06069809 .00002732 00000+0 13405-3 0 9998 2 41850 98.0770 326.2548 0002425 95.0638 265.0871 15.19058063516149 OPTICUBE 04 1 41851U 16067D 26104.04539990 .00001605 00000+0 10468-3 0 9994 2 41851 98.0774 312.9684 0015155 339.5454 20.5165 15.09393794515492 AEROCUBE 8D 1 41852U 16067E 26104.13613583 .00003655 00000+0 15652-3 0 9993 2 41852 98.0782 329.4492 0003669 21.8003 338.3388 15.23517434516314 AEROCUBE 8C 1 41853U 16067F 26104.17115954 .00004136 00000+0 17542-3 0 9992 2 41853 98.0652 326.7987 0003891 286.6754 73.4054 15.23750139516319 CORVUS BC2 1 42846U 17042X 26104.21380978 .00002066 00000+0 14603-3 0 9999 2 42846 97.3989 268.0928 0012476 336.2248 23.8401 15.05892492477432 CORVUS BC1 1 42847U 17042Y 26103.88348718 .00001795 00000+0 12687-3 0 9996 2 42847 97.4022 268.5471 0010897 312.8756 47.1556 15.06069797477412 MAKERSAT 0 1 43016U 17073D 26104.11681451 .00011611 00000+0 33563-3 0 9994 2 43016 97.4728 346.2419 0114444 139.8869 221.0892 15.29413541456660 SIRION PATHFINDER-2 1 43759U 18099B 26104.08271234 .00003239 00000+0 18201-3 0 9996 2 43759 97.4324 154.6712 0009681 153.4112 206.7619 15.13965129402926 CORVUS BC4 1 43767U 18099K 26104.06986268 .00002825 00000+0 16825-3 0 9993 2 43767 97.4139 148.9298 0007519 212.6124 147.4643 15.11982841402716 M2 PATHFINDER 1 45727U 20037E 26104.26623692 .00001842 00000+0 13633-3 0 9999 2 45727 97.8173 294.7829 0011810 16.0679 344.0919 15.04402679315886 NETSAT-4 1 46504U 20068U 26104.04297608 .00009426 00000+0 22484-3 0 9997 2 46504 97.8633 107.2359 0005973 168.7490 191.3891 15.41786954305889 NETSAT-3 1 46505U 20068V 26103.93330532 .00010456 00000+0 25976-3 0 9993 2 46505 97.8676 105.4210 0005123 184.2307 175.8896 15.40521995305782 NETSAT-1 1 46506U 20068W 26104.20276325 .00006335 00000+0 20067-3 0 9991 2 46506 97.8754 100.7676 0003846 209.2698 150.8328 15.33125388305494 NETSAT-2 1 46507U 20068X 26104.22407012 .00012577 00000+0 28397-3 0 9992 2 46507 97.8647 107.1221 0003427 185.0962 175.0250 15.43358580305860 GREENCUBE (IO-117) 1 53109U 22080E 26102.66137228 -.00000003 00000+0 00000+0 0 9998 2 53109 70.1495 321.0449 0008941 304.4164 55.5650 6.42583304 87852 SITRO-AIS 5 (KATYS) 1 57176U 23091L 26104.24947117 .00006348 00000+0 23450-3 0 9996 2 57176 97.5117 167.5968 0010532 334.5942 25.4778 15.28048013154578 SITRO-AIS 6 (CHIRKIN) 1 57192U 23091AC 26104.28494677 .00003429 00000+0 14041-3 0 9999 2 57192 97.5123 167.0735 0011202 338.8281 21.2491 15.24949073154543 SITRO-AIS 8 (ANOKHIN) 1 57193U 23091AD 26104.24220966 .00007511 00000+0 25716-3 0 9991 2 57193 97.5111 168.9318 0009595 330.8081 29.2622 15.30484083154669 SITRO-AIS 7 (FARTUSHNIY) 1 57194U 23091AE 26104.27570639 .00003373 00000+0 13930-3 0 9997 2 57194 97.5121 166.9202 0011129 339.8628 20.2168 15.24669713154533 SITRO-AIS 10 (BURDAEV) 1 57199U 23091AK 26104.26801452 .00010377 00000+0 29544-3 0 9991 2 57199 97.5128 173.3902 0005376 303.7251 56.3480 15.36294502154948 SITRO-AIS 9 (SHCHUKIN) 1 57201U 23091AM 26104.27548484 .00009981 00000+0 28815-3 0 9998 2 57201 97.5127 173.1745 0005662 303.7165 56.3538 15.35866806154930 SITRO-AIS 12 (SMIRENNIY) 1 57204U 23091AQ 26104.21270565 .00009964 00000+0 28523-3 0 9994 2 57204 97.5138 173.5386 0005286 296.5461 63.5240 15.36135647154944 SITRO-AIS 11 (SHEFFER) 1 57208U 23091AU 26104.24266356 .00009373 00000+0 26527-3 0 9990 2 57208 97.5135 173.7784 0005205 296.1474 63.9234 15.36513788154965 SITRO-AIS 25 1 59066U 24039R 26104.31402457 .00003685 00000+0 29071-3 0 9996 2 59066 95.3925 191.2131 0145811 190.5632 169.2523 14.92983813115198 SITRO-AIS 26 1 59067U 24039S 26104.30693772 .00003311 00000+0 26265-3 0 9996 2 59067 95.3926 191.1187 0146103 191.1177 168.6810 14.92790987115185 SITRO-AIS 27 1 59068U 24039T 26104.29477164 .00002797 00000+0 22040-3 0 9994 2 59068 95.3928 191.3531 0145218 189.9257 169.9095 14.93194989115206 SITRO-AIS 28 1 59071U 24039U 26104.27370397 .00003161 00000+0 24857-3 0 9990 2 59071 95.3932 191.3823 0145064 189.8146 170.0241 14.93232845115204 GRBBETA 1 60237U 24128C 26104.22978151 .00002085 00000+0 15316-3 0 9996 2 60237 61.9887 80.5696 0048156 121.1797 239.4030 15.06132109 96638 OOV-CUBE (TUBSAT-30) 1 60240U 24128F 26104.23756291 .00001338 00000+0 11359-3 0 9993 2 60240 61.9930 88.5070 0051593 119.7974 240.8262 15.02460718 96509 ROBUSTA-3A (MEDITERRAN*) 1 60243U 24128J 26104.28144681 .00003865 00000+0 23931-3 0 9991 2 60243 61.9856 74.0613 0048853 114.9429 245.6754 15.10689794 96762 LASARSAT 1 62391U 24247Q 26103.74615374 .00018284 00000+0 41821-3 0 9990 2 62391 44.9751 263.2382 0006106 287.4026 72.6194 15.42592148 73359 CROCUBE 1 62394U 24247T 26104.13521246 .00019565 00000+0 42615-3 0 9996 2 62394 44.9724 259.2932 0005724 287.5074 72.5189 15.44009058 73434 FORESAIL-1 PRIME 1 66778U 25276DS 26103.94076275 .00002970 00000+0 14884-3 0 9993 2 66778 97.4224 178.4079 0001942 11.9282 348.1998 15.18120543 20654 KNACKSAT-2 1 67683U 98067XZ 26103.59735838 .00023774 00000+0 35547-3 0 9999 2 67683 51.6305 258.0103 0011243 317.2069 42.8046 15.54814916 10212